Weather History for KFBG - November, 2013

Change the Weather History Date:

Sunday, November 17, 2013

  Actual Average Record
Temperature  
Mean Temperature 62 °F -  
Max Temperature 73 °F 61 °F 77 °F (2003)
Min Temperature 51 °F 40 °F 28 °F (1997)
Degree Days  
Heating Degree Days 3    
Growing Degree Days 12 (Base 50)    
Moisture  
Dew Point 58 °F    
Average Humidity 98    
Maximum Humidity 100    
Minimum Humidity 67    
Precipitation  
Precipitation 0.02 in - - ()
Sea Level Pressure  
Sea Level Pressure 30.13 in    
Wind  
Wind Speed 2 mph (East)    
Max Wind Speed 10 mph    
Max Gust Speed -    
Visibility 5 miles    
Events Fog , Rain    
Averages and records for this station are not official NWS values.
T = Trace of Precipitation, MM = Missing Value Source: NWS Daily Summary

Daily Weather History Graph

Daily Weather History Graph

Search for Another Location

Airport or City:

Trip Planner

Search our weather history database for the weather conditions in past years. The results will help you decide how hot, cold, wet, or windy it might be!

Date:

Astronomy

Nov. 17, 2013 Rise Set
Actual Time 6:52 AM EST 5:08 PM EST
Civil Twilight 6:25 AM EST 5:35 PM EST
Nautical Twilight 5:54 AM EST 6:06 PM EST
Astronomical Twilight 5:24 AM EST 6:36 PM EST
Moon 5:24 PM EST (11/17) 6:45 AM EST (11/17)
Length of Visible Light 11h 10m
Length of Day
10h 15m
Full, 100% of the Moon is Illuminated
Nov 17
Full
Nov 25
Last Quarter
Dec 2
New
Dec 9
First Quarter
Dec 17
Full

Hourly Weather History & Observations

Time (EST) Temp. Dew Point Humidity Pressure Visibility Wind Dir Wind Speed Gust Speed Precip Events Conditions
12:34 AM 53.6 °F 53.6 °F 100% 30.21 in 5.0 mi NNE 1.2 mph - N/A   Mostly Cloudy
12:44 AM 53.6 °F 53.6 °F 100% 30.20 in 2.5 mi Calm Calm - N/A   Mostly Cloudy
12:48 AM 53.6 °F 53.6 °F 100% 30.20 in 2.0 mi North - - N/A   Mostly Cloudy
12:50 AM 53.6 °F 53.6 °F 100% 30.20 in 1.8 mi Calm Calm - N/A   Mostly Cloudy
12:52 AM 53.6 °F 53.6 °F 100% 30.20 in 1.8 mi Calm Calm - N/A   Scattered Clouds
12:58 AM 52.5 °F 52.5 °F 100% 30.21 in 1.5 mi Calm Calm - N/A   Scattered Clouds
1:00 AM 51.8 °F 51.8 °F 100% 30.20 in 1.2 mi Calm Calm - N/A   Scattered Clouds
1:02 AM 51.8 °F 51.8 °F 100% 30.20 in 1.0 mi Calm Calm - N/A   Mist
1:04 AM 51.8 °F 51.8 °F 100% 30.20 in 0.8 mi Calm Calm - N/A   Mist
1:08 AM 51.8 °F 51.8 °F 100% 30.19 in 0.8 mi Calm Calm - N/A   Mist
1:10 AM 53.6 °F 53.6 °F 100% 30.19 in 0.5 mi Calm Calm - N/A Fog Fog
1:12 AM 53.6 °F 53.6 °F 100% 30.19 in 0.8 mi Calm Calm - N/A   Clear
1:18 AM 53.6 °F 53.6 °F 100% 30.19 in 1.0 mi Calm Calm - N/A   Clear
1:22 AM 53.6 °F 53.6 °F 100% 30.19 in 0.8 mi Calm Calm - N/A   Clear
1:32 AM 53.6 °F 53.6 °F 100% 30.19 in 1.0 mi Calm Calm - N/A   Clear
1:34 AM 53.6 °F 53.6 °F 100% 30.19 in 1.0 mi Calm Calm - N/A   Mist
1:36 AM 53.6 °F 53.6 °F 100% 30.18 in 0.8 mi Calm Calm - N/A   Mist
1:38 AM 51.8 °F 51.8 °F 100% 30.19 in 1.0 mi Calm Calm - N/A   Mist
1:40 AM 51.8 °F 51.8 °F 100% 30.19 in 1.5 mi Calm Calm - N/A   Scattered Clouds
1:42 AM 51.8 °F 51.8 °F 100% 30.19 in 2.0 mi Calm Calm - N/A   Mostly Cloudy
1:44 AM 51.8 °F 51.8 °F 100% 30.19 in 2.5 mi North 1.2 mph - N/A   Mostly Cloudy
1:46 AM 51.8 °F 51.8 °F 100% 30.19 in 5.0 mi North 2.3 mph - N/A   Mostly Cloudy
1:58 AM 52.5 °F 52.5 °F 100% 30.20 in 9.0 mi NNE 3.5 mph - N/A   Overcast
2:16 AM 51.8 °F 51.8 °F 100% 30.18 in 6.0 mi North 1.2 mph - N/A   Overcast
2:25 AM 51.8 °F 51.8 °F 100% 30.18 in 8.0 mi NE 2.3 mph - N/A   Overcast
2:41 AM 53.6 °F 53.6 °F 100% 30.17 in 7.0 mi NNE 3.5 mph - N/A   Overcast
2:53 AM 55.4 °F 55.4 °F 100% 30.18 in 7.0 mi Variable 1.2 mph - N/A   Overcast
2:55 AM 55.4 °F 55.4 °F 100% 30.17 in 7.0 mi NE 2.3 mph - N/A   Overcast
2:58 AM 55.6 °F 55.6 °F 100% 30.18 in 7.0 mi NE 3.5 mph - N/A   Overcast
3:10 AM 55.4 °F 55.4 °F 100% 30.17 in 2.5 mi NE 5.8 mph - N/A   Overcast
3:12 AM 55.4 °F 55.4 °F 100% 30.16 in 2.0 mi NE 4.6 mph - N/A   Overcast
3:14 AM 55.4 °F 55.4 °F 100% 30.16 in 1.5 mi NE 3.5 mph - N/A   Overcast
3:16 AM 55.4 °F 55.4 °F 100% 30.17 in 1.2 mi NE 4.6 mph - N/A   Overcast
3:18 AM 55.4 °F 55.4 °F 100% 30.17 in 1.2 mi Variable 2.3 mph - N/A   Overcast
3:20 AM 55.4 °F 55.4 °F 100% 30.17 in 1.0 mi NNE 3.5 mph - N/A   Overcast
3:26 AM 55.4 °F 55.4 °F 100% 30.17 in 0.8 mi NNE 3.5 mph - N/A   Mist
3:28 AM 55.4 °F 55.4 °F 100% 30.17 in 0.8 mi North 3.5 mph - N/A   Mist
3:58 AM 56.1 °F 56.1 °F 100% 30.18 in 0.8 mi North 1.2 mph - N/A   Mist
4:42 AM 55.4 °F 55.4 °F 100% 30.16 in 1.0 mi East 1.2 mph - N/A   Mist
4:46 AM 55.4 °F 55.4 °F 100% 30.16 in 1.2 mi Calm Calm - N/A   Overcast
4:48 AM 55.4 °F 55.4 °F 100% 30.16 in 1.2 mi Calm Calm - N/A   Overcast
4:50 AM 55.4 °F 55.4 °F 100% 30.16 in 1.5 mi Calm Calm - N/A   Overcast
4:52 AM 55.4 °F 55.4 °F 100% 30.16 in 1.8 mi Calm Calm - N/A   Overcast
4:54 AM 55.4 °F 55.4 °F 100% 30.16 in 2.0 mi East 1.2 mph - N/A   Overcast
4:56 AM 55.4 °F 55.4 °F 100% 30.16 in 2.5 mi SE 2.3 mph - N/A   Overcast
4:59 AM 56.1 °F 56.1 °F 100% 30.16 in 2.5 mi ESE 2.3 mph - N/A   Overcast
5:01 AM 55.4 °F 55.4 °F 100% 30.15 in 3.0 mi East 2.3 mph - N/A   Overcast
5:09 AM 55.4 °F 55.4 °F 100% 30.15 in 3.0 mi East 2.3 mph - N/A   Overcast
5:21 AM 55.4 °F 55.4 °F 100% 30.15 in 4.0 mi Calm Calm - N/A   Overcast
5:55 AM 57.2 °F 57.2 °F 100% 30.14 in 5.0 mi Calm Calm - N/A   Overcast
5:58 AM 56.3 °F 56.3 °F 100% 30.15 in 5.0 mi Calm Calm - N/A   Overcast
6:00 AM 57.2 °F 57.2 °F 100% 30.14 in 5.0 mi Calm Calm - N/A   Overcast
6:16 AM 57.2 °F 57.2 °F 100% 30.14 in 6.0 mi Calm Calm - N/A   Overcast
6:32 AM 55.4 °F 55.4 °F 100% 30.14 in 3.0 mi East 2.3 mph - N/A   Scattered Clouds
6:34 AM 55.4 °F 55.4 °F 100% 30.14 in 2.5 mi East 2.3 mph - N/A   Scattered Clouds
6:36 AM 55.4 °F 55.4 °F 100% 30.14 in 1.8 mi East 2.3 mph - N/A   Scattered Clouds
6:40 AM 55.4 °F 55.4 °F 100% 30.14 in 1.2 mi ENE 2.3 mph - N/A   Scattered Clouds
6:46 AM 55.4 °F 55.4 °F 100% 30.14 in 1.0 mi NNE 2.3 mph - N/A   Mist
6:50 AM 55.4 °F 55.4 °F 100% 30.14 in 0.8 mi NNE 1.2 mph - N/A   Clear
6:52 AM 55.4 °F 55.4 °F 100% 30.14 in 0.8 mi Calm Calm - N/A   Clear
6:54 AM 55.4 °F 55.4 °F 100% 30.14 in 0.8 mi NE 2.3 mph - N/A   Clear
6:56 AM 55.4 °F 55.4 °F 100% 30.15 in 1.0 mi North 1.2 mph - N/A   Clear
6:59 AM 55.2 °F 55.2 °F 100% 30.16 in 1.2 mi NNE 1.2 mph - N/A   Clear
7:01 AM 55.4 °F 55.4 °F 100% 30.15 in 2.5 mi Calm Calm - N/A   Clear
7:03 AM 55.4 °F 55.4 °F 100% 30.15 in 3.0 mi North - - N/A   Clear
7:09 AM 55.4 °F 55.4 °F 100% 30.15 in 4.0 mi Calm Calm - N/A   Partly Cloudy
7:19 AM 55.4 °F 55.4 °F 100% 30.15 in 4.0 mi Calm Calm - N/A   Mostly Cloudy
7:21 AM 55.4 °F 55.4 °F 100% 30.15 in 4.0 mi East 1.2 mph - N/A   Mostly Cloudy
7:42 AM 55.4 °F 55.4 °F 100% 30.16 in 5.0 mi Calm Calm - N/A   Overcast
7:52 AM 55.4 °F 55.4 °F 100% 30.17 in 4.0 mi North 2.3 mph - N/A   Overcast
7:54 AM 55.4 °F 55.4 °F 100% 30.18 in 4.0 mi NNW 3.5 mph - N/A   Overcast
7:58 AM 56.1 °F 56.1 °F 100% 30.19 in 4.0 mi NNW 4.6 mph - N/A   Overcast
7:59 AM 55.4 °F 55.4 °F 100% 30.18 in 5.0 mi NNW 3.5 mph - N/A   Overcast
8:05 AM 55.4 °F 55.4 °F 100% 30.17 in 6.0 mi North 1.2 mph - N/A   Overcast
8:09 AM 55.4 °F 55.4 °F 100% 30.17 in 6.0 mi North 1.2 mph - N/A   Overcast
8:31 AM 57.2 °F 57.2 °F 100% 30.18 in 8.0 mi ENE 3.5 mph - N/A   Overcast
8:47 AM 57.2 °F 57.2 °F 100% 30.19 in 9.0 mi East 6.9 mph - N/A   Overcast
8:51 AM 57.2 °F 57.2 °F 100% 30.19 in 8.0 mi ENE 6.9 mph - N/A   Overcast
8:58 AM 57.6 °F 57.6 °F 100% 30.19 in 6.0 mi ENE 8.1 mph - N/A   Overcast
9:00 AM 57.2 °F 57.2 °F 100% 30.18 in 4.0 mi East 5.8 mph - N/A   Overcast
9:04 AM 57.2 °F 57.2 °F 100% 30.18 in 2.5 mi East 5.8 mph - N/A   Overcast
9:06 AM 57.2 °F 57.2 °F 100% 30.19 in 2.0 mi East 4.6 mph - N/A   Overcast
9:08 AM 57.2 °F 57.2 °F 100% 30.19 in 1.8 mi East 5.8 mph - N/A   Overcast
9:10 AM 57.2 °F 57.2 °F 100% 30.19 in 1.0 mi East 4.6 mph - N/A   Overcast
9:12 AM 57.2 °F 57.2 °F 100% 30.19 in 0.8 mi ENE 5.8 mph - N/A   Overcast
9:14 AM 57.2 °F 57.2 °F 100% 30.18 in 0.8 mi ENE 4.6 mph - N/A   Overcast
9:16 AM 57.2 °F 57.2 °F 100% 30.18 in 0.8 mi ENE 4.6 mph - N/A   Overcast
9:18 AM 57.2 °F 57.2 °F 100% 30.18 in 0.5 mi ENE 4.6 mph - N/A Fog Fog
9:20 AM 57.2 °F 57.2 °F 100% 30.18 in 0.8 mi East 4.6 mph - N/A   Overcast
9:38 AM 59.0 °F 59.0 °F 100% 30.18 in 0.5 mi East 3.5 mph - N/A Fog Fog
9:44 AM 59.0 °F 59.0 °F 100% 30.18 in 0.2 mi East 3.5 mph - N/A Fog Fog
9:54 AM 59.0 °F 59.0 °F 100% 30.18 in 0.5 mi Variable 2.3 mph - N/A Fog Fog
9:56 AM 59.0 °F 59.0 °F 100% 30.18 in 0.5 mi ESE 3.5 mph - N/A Fog Fog
9:59 AM 59.0 °F 59.0 °F 100% 30.19 in 0.8 mi East 1.2 mph - N/A   Overcast
10:01 AM 59.0 °F 59.0 °F 100% 30.18 in 1.0 mi SE 3.5 mph - N/A   Overcast
10:03 AM 59.0 °F 59.0 °F 100% 30.18 in 1.5 mi SE 3.5 mph - N/A   Overcast
10:05 AM 59.0 °F 59.0 °F 100% 30.18 in 2.0 mi SE 3.5 mph - N/A   Overcast
10:07 AM 59.0 °F 59.0 °F 100% 30.18 in 2.0 mi NNE 1.2 mph - N/A   Overcast
10:09 AM 59.0 °F 59.0 °F 100% 30.18 in 2.5 mi SE 3.5 mph - N/A   Overcast
10:11 AM 59.0 °F 59.0 °F 100% 30.18 in 3.0 mi Calm Calm - N/A   Overcast
10:31 AM 59.0 °F 59.0 °F 100% 30.16 in 10.0 mi East 2.3 mph - N/A   Overcast
10:47 AM 60.8 °F 60.8 °F 100% 30.16 in 10.0 mi Variable 1.2 mph - N/A   Overcast
10:58 AM 62.4 °F 62.2 °F 99% 30.17 in 10.0 mi East 3.5 mph - N/A   Overcast
11:10 AM 64.4 °F 62.6 °F 94% 30.15 in 10.0 mi Variable 4.6 mph - N/A   Scattered Clouds
11:58 AM 67.5 °F 62.1 °F 83% 30.15 in 10.0 mi SSE 2.3 mph - N/A   Clear
12:58 PM 70.2 °F 62.1 °F 75% 30.10 in 10.0 mi Variable 4.6 mph - N/A   Clear
1:58 PM 72.9 °F 61.9 °F 68% 30.05 in 10.0 mi SE 8.1 mph - N/A   Clear
2:58 PM 73.0 °F 61.7 °F 67% 30.04 in 10.0 mi SSW 9.2 mph - N/A   Partly Cloudy
3:58 PM 72.7 °F 62.1 °F 69% 30.04 in 10.0 mi SE 2.3 mph - N/A   Mostly Cloudy
4:58 PM 72.0 °F 63.1 °F 74% 30.04 in 10.0 mi South 3.5 mph - N/A   Mostly Cloudy
5:58 PM 70.5 °F 63.1 °F 77% 30.02 in 10.0 mi SSE 3.5 mph - N/A   Scattered Clouds
6:06 PM 69.8 °F 64.4 °F 83% 30.01 in 10.0 mi SE 3.5 mph - N/A Rain Light Rain
6:17 PM 69.8 °F 64.4 °F 83% 30.01 in 10.0 mi SSE 5.8 mph - N/A   Partly Cloudy
6:26 PM 69.8 °F 64.4 °F 83% 30.00 in 10.0 mi SSE 4.6 mph - N/A Rain Light Rain
6:56 PM 68.0 °F 66.2 °F 94% 30.00 in 10.0 mi SSW 2.3 mph - N/A   Scattered Clouds
6:59 PM 68.7 °F 65.5 °F 89% 30.00 in 10.0 mi Variable 2.3 mph - 0.00 in   Scattered Clouds
7:00 PM 68.0 °F 66.2 °F 94% 29.99 in 10.0 mi South 3.5 mph - N/A Rain Light Rain
7:04 PM 68.0 °F 66.2 °F 94% 29.99 in 10.0 mi West 3.5 mph - N/A Rain Light Rain
7:14 PM 68.0 °F 68.0 °F 100% 30.00 in 10.0 mi SSW 3.5 mph - N/A Rain Light Rain
7:37 PM 68.0 °F 66.2 °F 94% 29.99 in 10.0 mi SSW 3.5 mph - N/A   Overcast
7:58 PM 67.1 °F 66.9 °F 99% 30.00 in 10.0 mi SSW 2.3 mph - 0.00 in   Overcast
8:04 PM 68.0 °F 66.2 °F 94% 29.98 in 10.0 mi SSE 2.3 mph - N/A   Overcast
8:34 PM 68.0 °F 66.2 °F 94% 29.98 in 10.0 mi SSE 3.5 mph - N/A   Mostly Cloudy
8:40 PM 68.0 °F 66.2 °F 94% 29.97 in 10.0 mi SSE 3.5 mph - N/A   Mostly Cloudy
8:52 PM 68.0 °F 66.2 °F 94% 29.97 in 10.0 mi South 3.5 mph - N/A   Overcast
8:58 PM 67.3 °F 66.9 °F 99% 29.98 in 10.0 mi SSE 4.6 mph - N/A   Overcast
9:26 PM 68.0 °F 68.0 °F 100% 29.94 in 10.0 mi SSE 8.1 mph - N/A   Overcast
9:58 PM 68.2 °F 68.2 °F 100% 29.97 in 10.0 mi South 5.8 mph - N/A   Overcast
9:59 PM 68.0 °F 68.0 °F 100% 29.96 in 10.0 mi Variable 5.8 mph - N/A Rain Light Rain
10:26 PM 68.0 °F 68.0 °F 100% 29.96 in 10.0 mi South 5.8 mph - N/A Rain Light Rain
10:44 PM 68.0 °F 68.0 °F 100% 29.96 in 10.0 mi SSW 6.9 mph - N/A   Overcast
10:58 PM 68.5 °F 68.5 °F 100% 29.96 in 10.0 mi Variable 4.6 mph - 0.01 in   Overcast
11:00 PM 68.0 °F 68.0 °F 100% 29.95 in 10.0 mi South 10.4 mph - N/A Rain Light Rain
11:04 PM 68.0 °F 68.0 °F 100% 29.94 in 10.0 mi South 10.4 mph - N/A Rain Light Rain
11:25 PM 68.0 °F 68.0 °F 100% 29.94 in 10.0 mi SSW 5.8 mph - N/A   Overcast
11:58 PM 68.4 °F 68.4 °F 100% 29.94 in 10.0 mi SSW 5.8 mph - 0.01 in   Overcast